Year,Month,Day,Hour,Minute,Value (Times are PST for temperature in C)
2017,02,28,00,00,-1.00
2017,02,28,00,01,-1.00
2017,02,28,00,02,-1.00
2017,02,28,00,03,-1.00
2017,02,28,00,04,-1.00
2017,02,28,00,05,-1.00
2017,02,28,00,06,-1.00
2017,02,28,00,07,-1.00
2017,02,28,00,08,-1.00
2017,02,28,00,09,-1.00
2017,02,28,00,10,-0.90
2017,02,28,00,11,-1.00
2017,02,28,00,12,-1.00
2017,02,28,00,13,-1.00
2017,02,28,00,14,-0.90
2017,02,28,00,15,-0.90
2017,02,28,00,16,-0.90
2017,02,28,00,17,-0.90
2017,02,28,00,18,-0.90
2017,02,28,00,19,-0.90
2017,02,28,00,20,-0.90
2017,02,28,00,21,-0.90
2017,02,28,00,22,-0.90
2017,02,28,00,23,-0.90
2017,02,28,00,24,-0.90
2017,02,28,00,25,-0.90
2017,02,28,00,26,-0.90
2017,02,28,00,27,-0.90
2017,02,28,00,28,-0.90
2017,02,28,00,29,-0.90
2017,02,28,00,30,-0.90
2017,02,28,00,31,-0.90
2017,02,28,00,32,-0.90
2017,02,28,00,33,-0.90
2017,02,28,00,34,-0.90
2017,02,28,00,35,-0.90
2017,02,28,00,36,-0.90
2017,02,28,00,37,-0.90
2017,02,28,00,38,-0.90
2017,02,28,00,39,-0.90
2017,02,28,00,40,-0.90
2017,02,28,00,41,-0.90
2017,02,28,00,42,-0.90
2017,02,28,00,43,-0.90
2017,02,28,00,44,-0.90
2017,02,28,00,45,-1.00
2017,02,28,00,46,-1.00
2017,02,28,00,47,-1.00
2017,02,28,00,48,-1.00
2017,02,28,00,49,-0.90
2017,02,28,00,50,-1.00
2017,02,28,00,51,-1.00
2017,02,28,00,52,-1.00
2017,02,28,00,53,-1.00
2017,02,28,00,54,-1.00
2017,02,28,00,55,-1.00
2017,02,28,00,56,-1.00
2017,02,28,00,57,-1.00
2017,02,28,00,58,-1.00
2017,02,28,00,59,-1.00
2017,02,28,01,00,-1.00
2017,02,28,01,01,-1.00
2017,02,28,01,02,-1.00
2017,02,28,01,03,-1.10
2017,02,28,01,04,-1.10
2017,02,28,01,05,-1.10
2017,02,28,01,06,-1.10
2017,02,28,01,07,-1.10
2017,02,28,01,08,-1.10
2017,02,28,01,09,-1.10
2017,02,28,01,10,-1.10
2017,02,28,01,11,-1.10
2017,02,28,01,12,-1.10
2017,02,28,01,13,-1.10
2017,02,28,01,14,-1.10
2017,02,28,01,15,-1.10
2017,02,28,01,16,-1.10
2017,02,28,01,17,-1.10
2017,02,28,01,18,-1.10
2017,02,28,01,19,-1.10
2017,02,28,01,20,-1.10
2017,02,28,01,21,-1.10
2017,02,28,01,22,-1.10
2017,02,28,01,23,-1.10
2017,02,28,01,24,-1.20
2017,02,28,01,25,-1.20
2017,02,28,01,26,-1.20
2017,02,28,01,27,-1.20
2017,02,28,01,28,-1.20
2017,02,28,01,29,-1.20
2017,02,28,01,30,-1.20
2017,02,28,01,31,-1.20
2017,02,28,01,32,-1.20
2017,02,28,01,33,-1.20
2017,02,28,01,34,-1.20
2017,02,28,01,35,-1.10
2017,02,28,01,36,-1.20
2017,02,28,01,37,-1.20
2017,02,28,01,38,-1.20
2017,02,28,01,39,-1.20
2017,02,28,01,40,-1.20
2017,02,28,01,41,-1.20
2017,02,28,01,42,-1.20
2017,02,28,01,43,-1.20
2017,02,28,01,44,-1.20
2017,02,28,01,45,-1.20
2017,02,28,01,46,-1.20
2017,02,28,01,47,-1.20
2017,02,28,01,48,-1.20
2017,02,28,01,49,-1.20
2017,02,28,01,50,-1.20
2017,02,28,01,51,-1.20
2017,02,28,01,52,-1.20
2017,02,28,01,53,-1.20
2017,02,28,01,54,-1.20
2017,02,28,01,55,-1.20
2017,02,28,01,56,-1.20
2017,02,28,01,57,-1.20
2017,02,28,01,58,-1.20
2017,02,28,01,59,-1.20
2017,02,28,02,00,-1.20
2017,02,28,02,01,-1.20
2017,02,28,02,02,-1.20
2017,02,28,02,03,-1.20
2017,02,28,02,04,-1.20
2017,02,28,02,05,-1.20
2017,02,28,02,06,-1.20
2017,02,28,02,07,-1.20
2017,02,28,02,08,-1.20
2017,02,28,02,09,-1.20
2017,02,28,02,10,-1.20
2017,02,28,02,11,-1.20
2017,02,28,02,12,-1.20
2017,02,28,02,13,-1.20
2017,02,28,02,14,-1.20
2017,02,28,02,15,-1.20
2017,02,28,02,16,-1.20
2017,02,28,02,17,-1.20
2017,02,28,02,18,-1.20
2017,02,28,02,19,-1.20
2017,02,28,02,20,-1.20
2017,02,28,02,21,-1.20
2017,02,28,02,22,-1.20
2017,02,28,02,23,-1.20
2017,02,28,02,24,-1.20
2017,02,28,02,25,-1.20
2017,02,28,02,26,-1.20
2017,02,28,02,27,-1.20
2017,02,28,02,28,-1.20
2017,02,28,02,29,-1.20
2017,02,28,02,30,-1.20
2017,02,28,02,31,-1.20
2017,02,28,02,32,-1.20
2017,02,28,02,33,-1.20
2017,02,28,02,34,-1.20
2017,02,28,02,35,-1.20
2017,02,28,02,36,-1.20
2017,02,28,02,37,-1.20
2017,02,28,02,38,-1.20
2017,02,28,02,39,-1.20
2017,02,28,02,40,-1.20
2017,02,28,02,41,-1.20
2017,02,28,02,42,-1.20
2017,02,28,02,43,-1.20
2017,02,28,02,44,-1.20
2017,02,28,02,45,-1.20
2017,02,28,02,46,-1.20
2017,02,28,02,47,-1.20
2017,02,28,02,48,-1.20
2017,02,28,02,49,-1.20
2017,02,28,02,50,-1.20
2017,02,28,02,51,-1.20
2017,02,28,02,52,-1.20
2017,02,28,02,53,-1.20
2017,02,28,02,54,-1.20
2017,02,28,02,55,-1.20
2017,02,28,02,56,-1.20
2017,02,28,02,57,-1.20
2017,02,28,02,58,-1.20
2017,02,28,02,59,-1.20
2017,02,28,03,00,-1.20
2017,02,28,03,01,-1.20
2017,02,28,03,02,-1.30
2017,02,28,03,03,-1.30
2017,02,28,03,04,-1.30
2017,02,28,03,05,-1.30
2017,02,28,03,06,-1.30
2017,02,28,03,07,-1.30
2017,02,28,03,08,-1.30
2017,02,28,03,09,-1.30
2017,02,28,03,10,-1.30
2017,02,28,03,11,-1.30
2017,02,28,03,12,-1.30
2017,02,28,03,13,-1.30
2017,02,28,03,14,-1.30
2017,02,28,03,15,-1.30
2017,02,28,03,16,-1.30
2017,02,28,03,17,-1.30
2017,02,28,03,18,-1.30
2017,02,28,03,19,-1.30
2017,02,28,03,20,-1.30
2017,02,28,03,21,-1.30
2017,02,28,03,22,-1.30
2017,02,28,03,23,-1.30
2017,02,28,03,24,-1.30
2017,02,28,03,25,-1.30
2017,02,28,03,26,-1.30
2017,02,28,03,27,-1.20
2017,02,28,03,28,-1.20
2017,02,28,03,29,-1.30
2017,02,28,03,30,-1.30
2017,02,28,03,31,-1.30
2017,02,28,03,32,-1.30
2017,02,28,03,33,-1.30
2017,02,28,03,34,-1.30
2017,02,28,03,35,-1.30
2017,02,28,03,36,-1.30
2017,02,28,03,37,-1.30
2017,02,28,03,38,-1.30
2017,02,28,03,39,-1.30
2017,02,28,03,40,-1.30
2017,02,28,03,41,-1.30
2017,02,28,03,42,-1.30
2017,02,28,03,43,-1.30
2017,02,28,03,44,-1.30
2017,02,28,03,45,-1.40
2017,02,28,03,46,-1.40
2017,02,28,03,47,-1.40
2017,02,28,03,48,-1.40
2017,02,28,03,49,-1.40
2017,02,28,03,50,-1.40
2017,02,28,03,51,-1.40
2017,02,28,03,52,-1.40
2017,02,28,03,53,-1.40
2017,02,28,03,54,-1.40
2017,02,28,03,55,-1.40
2017,02,28,03,56,-1.40
2017,02,28,03,57,-1.50
2017,02,28,03,58,-1.50
2017,02,28,03,59,-1.50
2017,02,28,04,00,-1.50
2017,02,28,04,01,-1.50
2017,02,28,04,02,-1.40
2017,02,28,04,03,-1.40
2017,02,28,04,04,-1.40
2017,02,28,04,05,-1.40
2017,02,28,04,06,-1.40
2017,02,28,04,07,-1.40
2017,02,28,04,08,-1.40
2017,02,28,04,09,-1.40
2017,02,28,04,10,-1.40
2017,02,28,04,11,-1.40
2017,02,28,04,12,-1.40
2017,02,28,04,13,-1.40
2017,02,28,04,14,-1.40
2017,02,28,04,15,-1.40
2017,02,28,04,16,-1.40
2017,02,28,04,17,-1.40
2017,02,28,04,18,-1.40
2017,02,28,04,19,-1.40
2017,02,28,04,20,-1.40
2017,02,28,04,21,-1.40
2017,02,28,04,22,-1.40
2017,02,28,04,23,-1.40
2017,02,28,04,24,-1.40
2017,02,28,04,25,-1.40
2017,02,28,04,26,-1.40
2017,02,28,04,27,-1.40
2017,02,28,04,28,-1.40
2017,02,28,04,29,-1.40
2017,02,28,04,30,-1.40
2017,02,28,04,31,-1.40
2017,02,28,04,32,-1.40
2017,02,28,04,33,-1.40
2017,02,28,04,34,-1.40
2017,02,28,04,35,-1.40
2017,02,28,04,36,-1.50
2017,02,28,04,37,-1.50
2017,02,28,04,38,-1.50
2017,02,28,04,39,-1.50
2017,02,28,04,40,-1.50
2017,02,28,04,41,-1.50
2017,02,28,04,42,-1.60
2017,02,28,04,43,-1.60
2017,02,28,04,44,-1.60
2017,02,28,04,45,-1.60
2017,02,28,04,46,-1.60
2017,02,28,04,47,-1.60
2017,02,28,04,48,-1.60
2017,02,28,04,49,-1.70
2017,02,28,04,50,-1.70
2017,02,28,04,51,-1.70
2017,02,28,04,52,-1.70
2017,02,28,04,53,-1.70
2017,02,28,04,54,-1.70
2017,02,28,04,55,-1.70
2017,02,28,04,56,-1.70
2017,02,28,04,57,-1.70
2017,02,28,04,58,-1.70
2017,02,28,04,59,-1.70
2017,02,28,05,00,-1.80
2017,02,28,05,01,-1.80
2017,02,28,05,02,-1.80
2017,02,28,05,03,-1.80
2017,02,28,05,04,-1.80
2017,02,28,05,05,-1.80
2017,02,28,05,06,-1.80
2017,02,28,05,07,-1.80
2017,02,28,05,08,-1.80
2017,02,28,05,09,-1.80
2017,02,28,05,10,-1.80
2017,02,28,05,11,-1.80
2017,02,28,05,12,-1.80
2017,02,28,05,13,-1.80
2017,02,28,05,14,-1.80
2017,02,28,05,15,-1.80
2017,02,28,05,16,-1.80
2017,02,28,05,17,-1.80
2017,02,28,05,18,-1.80
2017,02,28,05,19,-1.80
2017,02,28,05,20,-1.80
2017,02,28,05,21,-1.80
2017,02,28,05,22,-1.80
2017,02,28,05,23,-1.80
2017,02,28,05,24,-1.90
2017,02,28,05,25,-1.90
2017,02,28,05,26,-1.90
2017,02,28,05,27,-1.90
2017,02,28,05,28,-1.90
2017,02,28,05,29,-1.90
2017,02,28,05,30,-1.90
2017,02,28,05,31,-1.90
2017,02,28,05,32,-1.90
2017,02,28,05,33,-1.90
2017,02,28,05,34,-1.90
2017,02,28,05,35,-2.00
2017,02,28,05,36,-2.00
2017,02,28,05,37,-2.00
2017,02,28,05,38,-2.00
2017,02,28,05,39,-2.00
2017,02,28,05,40,-2.10
2017,02,28,05,41,-2.10
2017,02,28,05,42,-2.10
2017,02,28,05,43,-2.10
2017,02,28,05,44,-2.10
2017,02,28,05,45,-2.10
2017,02,28,05,46,-2.10
2017,02,28,05,47,-2.20
2017,02,28,05,48,-2.20
2017,02,28,05,49,-2.20
2017,02,28,05,50,-2.20
2017,02,28,05,51,-2.20
2017,02,28,05,52,-2.20
2017,02,28,05,53,-2.20
2017,02,28,05,54,-2.20
2017,02,28,05,55,-2.20
2017,02,28,05,56,-2.20
2017,02,28,05,57,-2.20
2017,02,28,05,58,-2.30
2017,02,28,05,59,-2.30
2017,02,28,06,00,-2.30
2017,02,28,06,01,-2.20
2017,02,28,06,02,-2.20
2017,02,28,06,03,-2.20
2017,02,28,06,04,-2.20
2017,02,28,06,05,-2.30
2017,02,28,06,06,-2.30
2017,02,28,06,07,-2.30
2017,02,28,06,08,-2.30
2017,02,28,06,09,-2.30
2017,02,28,06,10,-2.30
2017,02,28,06,11,-2.30
2017,02,28,06,12,-2.30
2017,02,28,06,13,-2.30
2017,02,28,06,14,-2.30
2017,02,28,06,15,-2.30
2017,02,28,06,16,-2.30
2017,02,28,06,17,-2.30
2017,02,28,06,18,-2.30
2017,02,28,06,19,-2.30
2017,02,28,06,20,-2.30
2017,02,28,06,21,-2.30
2017,02,28,06,22,-2.30
2017,02,28,06,23,-2.40
2017,02,28,06,24,-2.40
2017,02,28,06,25,-2.40
2017,02,28,06,26,-2.40
2017,02,28,06,27,-2.50
2017,02,28,06,28,-2.50
2017,02,28,06,29,-2.50
2017,02,28,06,30,-2.50
2017,02,28,06,31,-2.50
2017,02,28,06,32,-2.50
2017,02,28,06,33,-2.50
2017,02,28,06,34,-2.60
2017,02,28,06,35,-2.50
2017,02,28,06,36,-2.50
2017,02,28,06,37,-2.50
2017,02,28,06,38,-2.50
2017,02,28,06,39,-2.40
2017,02,28,06,40,-2.40
2017,02,28,06,41,-2.40
2017,02,28,06,42,-2.40
2017,02,28,06,43,-2.40
2017,02,28,06,44,-2.40
2017,02,28,06,45,-2.40
2017,02,28,06,46,-2.40
2017,02,28,06,47,-2.40
2017,02,28,06,48,-2.40
2017,02,28,06,49,-2.40
2017,02,28,06,50,-2.40
2017,02,28,06,51,-2.40
2017,02,28,06,52,-2.40
2017,02,28,06,53,-2.40
2017,02,28,06,54,-2.40
2017,02,28,06,55,-2.40
2017,02,28,06,56,-2.40
2017,02,28,06,57,-2.50
2017,02,28,06,58,-2.50
2017,02,28,06,59,-2.50
2017,02,28,07,00,-2.50
2017,02,28,07,01,-2.60
2017,02,28,07,02,-2.60
2017,02,28,07,03,-2.60
2017,02,28,07,04,-2.60
2017,02,28,07,05,-2.60
2017,02,28,07,06,-2.60
2017,02,28,07,07,-2.70
2017,02,28,07,08,-2.70
2017,02,28,07,09,-2.70
2017,02,28,07,10,-2.70
2017,02,28,07,11,-2.70
2017,02,28,07,12,-2.70
2017,02,28,07,13,-2.70
2017,02,28,07,14,-2.70
2017,02,28,07,15,-2.80
2017,02,28,07,16,-2.80
2017,02,28,07,17,-2.80
2017,02,28,07,18,-2.80
2017,02,28,07,19,-2.80
2017,02,28,07,20,-2.80
2017,02,28,07,21,-2.80
2017,02,28,07,22,-2.80
2017,02,28,07,23,-2.80
2017,02,28,07,24,-2.80
2017,02,28,07,25,-2.80
2017,02,28,07,26,-2.80
2017,02,28,07,27,-2.80
2017,02,28,07,28,-2.80
2017,02,28,07,29,-2.80
2017,02,28,07,30,-2.80
2017,02,28,07,31,-2.80
2017,02,28,07,32,-2.80
2017,02,28,07,33,-2.80
2017,02,28,07,34,-2.80
2017,02,28,07,35,-2.80
2017,02,28,07,36,-2.80
2017,02,28,07,37,-2.80
2017,02,28,07,38,-2.80
2017,02,28,07,39,-2.80
2017,02,28,07,40,-2.80
2017,02,28,07,41,-2.80
2017,02,28,07,42,-2.80
2017,02,28,07,43,-2.80
2017,02,28,07,44,-2.80
2017,02,28,07,45,-2.80
2017,02,28,07,46,-2.80
2017,02,28,07,47,-2.80
2017,02,28,07,48,-2.80
2017,02,28,07,49,-2.80
2017,02,28,07,50,-2.80
2017,02,28,07,51,-2.80
2017,02,28,07,52,-2.80
2017,02,28,07,53,-2.80
2017,02,28,07,54,-2.80
2017,02,28,07,55,-2.80
2017,02,28,07,56,-2.80
2017,02,28,07,57,-2.80
2017,02,28,07,58,-2.80
2017,02,28,07,59,-2.80
2017,02,28,08,00,-2.80
2017,02,28,08,01,-2.80
2017,02,28,08,02,-2.80
2017,02,28,08,03,-2.70
2017,02,28,08,04,-2.70
2017,02,28,08,05,-2.70
2017,02,28,08,06,-2.70
2017,02,28,08,07,-2.70
2017,02,28,08,08,-2.70
2017,02,28,08,09,-2.70
2017,02,28,08,10,-2.70
2017,02,28,08,11,-2.70
2017,02,28,08,12,-2.70
2017,02,28,08,13,-2.70
2017,02,28,08,14,-2.70
2017,02,28,08,15,-2.70
2017,02,28,08,16,-2.70
2017,02,28,08,17,-2.70
2017,02,28,08,18,-2.70
2017,02,28,08,19,-2.70
2017,02,28,08,20,-2.70
2017,02,28,08,21,-2.70
2017,02,28,08,22,-2.70
2017,02,28,08,23,-2.70
2017,02,28,08,24,-2.70
2017,02,28,08,25,-2.70
2017,02,28,08,26,-2.70
2017,02,28,08,27,-2.70
2017,02,28,08,28,-2.70
2017,02,28,08,29,-2.70
2017,02,28,08,30,-2.70
2017,02,28,08,31,-2.70
2017,02,28,08,32,-2.70
2017,02,28,08,33,-2.70
2017,02,28,08,34,-2.60
2017,02,28,08,35,-2.60
2017,02,28,08,36,-2.60
2017,02,28,08,37,-2.60
2017,02,28,08,38,-2.60
2017,02,28,08,39,-2.50
2017,02,28,08,40,-2.50
2017,02,28,08,41,-2.50
2017,02,28,08,42,-2.40
2017,02,28,08,43,-2.40
2017,02,28,08,44,-2.40
2017,02,28,08,45,-2.40
2017,02,28,08,46,-2.30
2017,02,28,08,47,-2.30
2017,02,28,08,48,-2.30
2017,02,28,08,49,-2.20
2017,02,28,08,50,-2.20
2017,02,28,08,51,-2.20
2017,02,28,08,52,-2.20
2017,02,28,08,53,-2.20
2017,02,28,08,54,-2.10
2017,02,28,08,55,-2.10
2017,02,28,08,56,-2.10
2017,02,28,08,57,-2.00
2017,02,28,08,58,-2.00
2017,02,28,08,59,-1.90
2017,02,28,09,00,-1.90
2017,02,28,09,01,-1.90
2017,02,28,09,02,-1.80
2017,02,28,09,03,-1.80
2017,02,28,09,04,-1.80
2017,02,28,09,05,-1.70
2017,02,28,09,06,-1.70
2017,02,28,09,07,-1.70
2017,02,28,09,08,-1.70
2017,02,28,09,09,-1.60
2017,02,28,09,10,-1.60
2017,02,28,09,11,-1.60
2017,02,28,09,12,-1.60
2017,02,28,09,13,-1.50
2017,02,28,09,14,-1.50
2017,02,28,09,15,-1.50
2017,02,28,09,16,-1.50
2017,02,28,09,17,-1.40
2017,02,28,09,18,-1.40
2017,02,28,09,19,-1.40
2017,02,28,09,20,-1.40
2017,02,28,09,21,-1.40
2017,02,28,09,22,-1.30
2017,02,28,09,23,-1.30
2017,02,28,09,24,-1.30
2017,02,28,09,25,-1.30
2017,02,28,09,26,-1.30
2017,02,28,09,27,-1.30
2017,02,28,09,28,-1.30
2017,02,28,09,29,-1.30
2017,02,28,09,30,-1.30
2017,02,28,09,31,-1.30
2017,02,28,09,32,-1.30
2017,02,28,09,33,-1.30
2017,02,28,09,34,-1.30
2017,02,28,09,35,-1.30
2017,02,28,09,36,-1.30
2017,02,28,09,37,-1.30
2017,02,28,09,38,-1.30
2017,02,28,09,39,-1.30
2017,02,28,09,40,-1.30
2017,02,28,09,41,-1.30
2017,02,28,09,42,-1.20
2017,02,28,09,43,-1.20
2017,02,28,09,44,-1.20
2017,02,28,09,45,-1.20
2017,02,28,09,46,-1.20
2017,02,28,09,47,-1.20
2017,02,28,09,48,-1.20
2017,02,28,09,49,-1.10
2017,02,28,09,50,-1.10
2017,02,28,09,51,-1.10
2017,02,28,09,52,-1.10
2017,02,28,09,53,-1.10
2017,02,28,09,54,-1.10
2017,02,28,09,55,-1.10
2017,02,28,09,56,-1.10
2017,02,28,09,57,-1.00
2017,02,28,09,58,-1.00
2017,02,28,09,59,-1.00
2017,02,28,10,00,-1.00
2017,02,28,10,01,-0.90
2017,02,28,10,02,-0.90
2017,02,28,10,03,-0.90
2017,02,28,10,04,-0.90
2017,02,28,10,05,-0.90
2017,02,28,10,06,-0.90
2017,02,28,10,07,-0.90
2017,02,28,10,08,-0.80
2017,02,28,10,09,-0.80
2017,02,28,10,10,-0.80
2017,02,28,10,11,-0.80
2017,02,28,10,12,-0.80
2017,02,28,10,13,-0.80
2017,02,28,10,14,-0.80
2017,02,28,10,15,-0.80
2017,02,28,10,16,-0.70
2017,02,28,10,17,-0.70
2017,02,28,10,18,-0.70
2017,02,28,10,19,-0.70
2017,02,28,10,20,-0.70
2017,02,28,10,21,-0.60
2017,02,28,10,22,-0.60
2017,02,28,10,23,-0.60
2017,02,28,10,24,-0.60
2017,02,28,10,25,-0.60
2017,02,28,10,26,-0.60
2017,02,28,10,27,-0.60
2017,02,28,10,28,-0.50
2017,02,28,10,29,-0.50
2017,02,28,10,30,-0.50
2017,02,28,10,31,-0.50
2017,02,28,10,32,-0.40
2017,02,28,10,33,-0.40
2017,02,28,10,34,-0.40
2017,02,28,10,35,-0.40
2017,02,28,10,36,-0.40
2017,02,28,10,37,-0.30
2017,02,28,10,38,-0.30
2017,02,28,10,39,-0.30
2017,02,28,10,40,-0.30
2017,02,28,10,41,-0.30
2017,02,28,10,42,-0.30
2017,02,28,10,43,-0.20
2017,02,28,10,44,-0.20
2017,02,28,10,45,-0.20
2017,02,28,10,46,-0.20
2017,02,28,10,47,-0.10
2017,02,28,10,48,-0.10
2017,02,28,10,49,-0.10
2017,02,28,10,50,-0.10
2017,02,28,10,51,-0.10
2017,02,28,10,52,-0.10
2017,02,28,10,53,0.00
2017,02,28,10,54,0.00
2017,02,28,10,55,0.00
2017,02,28,10,56,0.10
2017,02,28,10,57,0.10
2017,02,28,10,58,0.10
2017,02,28,10,59,0.20
2017,02,28,11,00,0.20
2017,02,28,11,01,0.20
2017,02,28,11,02,0.30
2017,02,28,11,03,0.30
2017,02,28,11,04,0.40
2017,02,28,11,05,0.40
2017,02,28,11,06,0.50
2017,02,28,11,07,0.50
2017,02,28,11,08,0.60
2017,02,28,11,09,0.60
2017,02,28,11,10,0.70
2017,02,28,11,11,0.70
2017,02,28,11,12,0.80
2017,02,28,11,13,0.80
2017,02,28,11,14,0.80
2017,02,28,11,15,0.80
2017,02,28,11,16,0.90
2017,02,28,11,17,0.90
2017,02,28,11,18,0.90
2017,02,28,11,19,1.00
2017,02,28,11,20,1.10
2017,02,28,11,21,1.10
2017,02,28,11,22,1.10
2017,02,28,11,23,1.10
2017,02,28,11,24,1.20
2017,02,28,11,25,1.20
2017,02,28,11,26,1.30
2017,02,28,11,27,1.30
2017,02,28,11,28,1.30
2017,02,28,11,29,1.30
2017,02,28,11,30,1.30
2017,02,28,11,31,1.30
2017,02,28,11,32,1.40
2017,02,28,11,33,1.50
2017,02,28,11,34,1.50
2017,02,28,11,35,1.60
2017,02,28,11,36,1.60
2017,02,28,11,37,1.70
2017,02,28,11,38,1.70
2017,02,28,11,39,1.70
2017,02,28,11,40,1.80
2017,02,28,11,41,1.80
2017,02,28,11,42,1.90
2017,02,28,11,43,1.90
2017,02,28,11,44,2.00
2017,02,28,11,45,2.00
2017,02,28,11,46,2.10
2017,02,28,11,47,2.20
2017,02,28,11,48,2.30
2017,02,28,11,49,2.30
2017,02,28,11,50,2.40
2017,02,28,11,51,2.50
2017,02,28,11,52,2.60
2017,02,28,11,53,2.70
2017,02,28,11,54,2.70
2017,02,28,11,55,2.80
2017,02,28,11,56,2.90
2017,02,28,11,57,2.90
2017,02,28,11,58,2.90
2017,02,28,11,59,2.90
2017,02,28,12,00,2.90
2017,02,28,12,01,2.90
2017,02,28,12,02,2.90
2017,02,28,12,03,3.00
2017,02,28,12,04,3.00
2017,02,28,12,05,3.10
2017,02,28,12,06,3.10
2017,02,28,12,07,3.20
2017,02,28,12,08,3.20
2017,02,28,12,09,3.30
2017,02,28,12,10,3.30
2017,02,28,12,11,3.30
2017,02,28,12,12,3.30
2017,02,28,12,13,3.30
2017,02,28,12,14,3.30
2017,02,28,12,15,3.30
2017,02,28,12,16,3.30
2017,02,28,12,17,3.30
2017,02,28,12,18,3.30
2017,02,28,12,19,3.30
2017,02,28,12,20,3.30
2017,02,28,12,21,3.30
2017,02,28,12,22,3.30
2017,02,28,12,23,3.30
2017,02,28,12,24,3.30
2017,02,28,12,25,3.30
2017,02,28,12,26,3.40
2017,02,28,12,27,3.40
2017,02,28,12,28,3.40
2017,02,28,12,29,3.40
2017,02,28,12,30,3.40
2017,02,28,12,31,3.40
2017,02,28,12,32,3.50
2017,02,28,12,33,3.50
2017,02,28,12,34,3.60
2017,02,28,12,35,3.60
2017,02,28,12,36,3.60
2017,02,28,12,37,3.70
2017,02,28,12,38,3.70
2017,02,28,12,39,3.70
2017,02,28,12,40,3.80
2017,02,28,12,41,3.80
2017,02,28,12,42,3.80
2017,02,28,12,43,3.80
2017,02,28,12,44,3.80
2017,02,28,12,45,3.80
2017,02,28,12,46,3.80
2017,02,28,12,47,3.80
2017,02,28,12,48,3.80
2017,02,28,12,49,3.80
2017,02,28,12,50,3.80
2017,02,28,12,51,3.80
2017,02,28,12,52,3.80
2017,02,28,12,53,3.80
2017,02,28,12,54,3.80
2017,02,28,12,55,3.80
2017,02,28,12,56,3.80
2017,02,28,12,57,3.80
2017,02,28,12,58,3.70
2017,02,28,12,59,3.70
2017,02,28,13,00,3.70
2017,02,28,13,01,3.70
2017,02,28,13,02,3.70
2017,02,28,13,03,3.70
2017,02,28,13,04,3.70
2017,02,28,13,05,3.80
2017,02,28,13,06,3.80
2017,02,28,13,07,3.80
2017,02,28,13,08,3.80
2017,02,28,13,09,3.80
2017,02,28,13,10,3.80
2017,02,28,13,11,3.80
2017,02,28,13,12,3.80
2017,02,28,13,13,3.80
2017,02,28,13,14,3.80
2017,02,28,13,15,3.80
2017,02,28,13,16,3.80
2017,02,28,13,17,3.80
2017,02,28,13,18,3.80
2017,02,28,13,19,3.80
2017,02,28,13,20,3.80
2017,02,28,13,21,3.80
2017,02,28,13,22,3.80
2017,02,28,13,23,3.80
2017,02,28,13,24,3.80
2017,02,28,13,25,3.90
2017,02,28,13,26,3.90
2017,02,28,13,27,3.90
2017,02,28,13,28,3.90
2017,02,28,13,29,3.90
2017,02,28,13,30,4.00
2017,02,28,13,31,4.00
2017,02,28,13,32,4.00
2017,02,28,13,33,4.00
2017,02,28,13,34,4.00
2017,02,28,13,35,4.10
2017,02,28,13,36,4.10
2017,02,28,13,37,4.10
2017,02,28,13,38,4.10
2017,02,28,13,39,4.20
2017,02,28,13,40,4.30
2017,02,28,13,41,4.30
2017,02,28,13,42,4.40
2017,02,28,13,43,4.50
2017,02,28,13,44,4.50
2017,02,28,13,45,4.60
2017,02,28,13,46,4.70
2017,02,28,13,47,4.70
2017,02,28,13,48,4.80
2017,02,28,13,49,4.80
2017,02,28,13,50,4.90
2017,02,28,13,51,5.00
2017,02,28,13,52,5.00
2017,02,28,13,53,5.10
2017,02,28,13,54,5.10
2017,02,28,13,55,5.10
2017,02,28,13,56,5.10
2017,02,28,13,57,5.00
2017,02,28,13,58,5.00
2017,02,28,13,59,5.00
2017,02,28,14,00,4.90
2017,02,28,14,01,4.90
2017,02,28,14,02,4.90
2017,02,28,14,03,4.80
2017,02,28,14,04,4.80
2017,02,28,14,05,4.80
2017,02,28,14,06,4.80
2017,02,28,14,07,4.80
2017,02,28,14,08,4.80
2017,02,28,14,09,4.80
2017,02,28,14,10,4.80
2017,02,28,14,11,4.80
2017,02,28,14,12,4.80
2017,02,28,14,13,4.80
2017,02,28,14,14,4.80
2017,02,28,14,15,4.80
2017,02,28,14,16,4.80
2017,02,28,14,17,4.70
2017,02,28,14,18,4.70
2017,02,28,14,19,4.70
2017,02,28,14,20,4.70
2017,02,28,14,21,4.70
2017,02,28,14,22,4.70
2017,02,28,14,23,4.70
2017,02,28,14,24,4.70
2017,02,28,14,25,4.70
2017,02,28,14,26,4.70
2017,02,28,14,27,4.70
2017,02,28,14,28,4.70
2017,02,28,14,29,4.70
2017,02,28,14,30,4.60
2017,02,28,14,31,4.60
2017,02,28,14,32,4.60
2017,02,28,14,33,4.60
2017,02,28,14,34,4.60
2017,02,28,14,35,4.60
2017,02,28,14,36,4.70
2017,02,28,14,37,4.70
2017,02,28,14,38,4.70
2017,02,28,14,39,4.70
2017,02,28,14,40,4.70
2017,02,28,14,41,4.70
2017,02,28,14,42,4.70
2017,02,28,14,43,4.70
2017,02,28,14,44,4.80
2017,02,28,14,45,4.80
2017,02,28,14,46,4.80
2017,02,28,14,47,4.80
2017,02,28,14,48,4.80
2017,02,28,14,49,4.80
2017,02,28,14,50,4.80
2017,02,28,14,51,4.80
2017,02,28,14,52,4.80
2017,02,28,14,53,4.80
2017,02,28,14,54,4.80
2017,02,28,14,55,4.80
2017,02,28,14,56,4.80
2017,02,28,14,57,4.80
2017,02,28,14,58,4.80
2017,02,28,14,59,4.80
2017,02,28,15,00,4.70
2017,02,28,15,01,4.70
2017,02,28,15,02,4.70
2017,02,28,15,03,4.70
2017,02,28,15,04,4.70
2017,02,28,15,05,4.70
2017,02,28,15,06,4.70
2017,02,28,15,07,4.70
2017,02,28,15,08,4.70
2017,02,28,15,09,4.70
2017,02,28,15,10,4.70
2017,02,28,15,11,4.70
2017,02,28,15,12,4.70
2017,02,28,15,13,4.70
2017,02,28,15,14,4.70
2017,02,28,15,15,4.70
2017,02,28,15,16,4.70
2017,02,28,15,17,4.70
2017,02,28,15,18,4.70
2017,02,28,15,19,4.70
2017,02,28,15,20,4.70
2017,02,28,15,21,4.70
2017,02,28,15,22,4.70
2017,02,28,15,23,4.70
2017,02,28,15,24,4.70
2017,02,28,15,25,4.70
2017,02,28,15,26,4.60
2017,02,28,15,27,4.60
2017,02,28,15,28,4.70
2017,02,28,15,29,4.70
2017,02,28,15,30,4.70
2017,02,28,15,31,4.70
2017,02,28,15,32,4.70
2017,02,28,15,33,4.70
2017,02,28,15,34,4.70
2017,02,28,15,35,4.70
2017,02,28,15,36,4.70
2017,02,28,15,37,4.70
2017,02,28,15,38,4.70
2017,02,28,15,39,4.70
2017,02,28,15,40,4.70
2017,02,28,15,41,4.70
2017,02,28,15,42,4.70
2017,02,28,15,43,4.70
2017,02,28,15,44,4.70
2017,02,28,15,45,4.70
2017,02,28,15,46,4.80
2017,02,28,15,47,4.80
2017,02,28,15,48,4.80
2017,02,28,15,49,4.80
2017,02,28,15,50,4.80
2017,02,28,15,51,4.80
2017,02,28,15,52,4.80
2017,02,28,15,53,4.80
2017,02,28,15,54,4.80
2017,02,28,15,55,4.80
2017,02,28,15,56,4.80
2017,02,28,15,57,4.80
2017,02,28,15,58,4.80
2017,02,28,15,59,4.90
2017,02,28,16,00,4.90
2017,02,28,16,01,4.80
2017,02,28,16,02,4.80
2017,02,28,16,03,4.80
2017,02,28,16,04,4.80
2017,02,28,16,05,4.80
2017,02,28,16,06,4.80
2017,02,28,16,07,4.80
2017,02,28,16,08,4.80
2017,02,28,16,09,4.90
2017,02,28,16,10,4.90
2017,02,28,16,11,4.90
2017,02,28,16,12,4.90
2017,02,28,16,13,4.90
2017,02,28,16,14,4.80
2017,02,28,16,15,4.80
2017,02,28,16,16,4.80
2017,02,28,16,17,4.80
2017,02,28,16,18,4.80
2017,02,28,16,19,4.80
2017,02,28,16,20,4.80
2017,02,28,16,21,4.80
2017,02,28,16,22,4.80
2017,02,28,16,23,4.80
2017,02,28,16,24,4.80
2017,02,28,16,25,4.80
2017,02,28,16,26,4.80
2017,02,28,16,27,4.80
2017,02,28,16,28,4.80
2017,02,28,16,29,4.80
2017,02,28,16,30,4.80
2017,02,28,16,31,4.80
2017,02,28,16,32,4.90
2017,02,28,16,33,4.90
2017,02,28,16,34,4.90
2017,02,28,16,35,4.90
2017,02,28,16,36,4.80
2017,02,28,16,37,4.80
2017,02,28,16,38,4.80
2017,02,28,16,39,4.80
2017,02,28,16,40,4.80
2017,02,28,16,41,4.70
2017,02,28,16,42,4.70
2017,02,28,16,43,4.70
2017,02,28,16,44,4.70
2017,02,28,16,45,4.70
2017,02,28,16,46,4.60
2017,02,28,16,47,4.60
2017,02,28,16,48,4.60
2017,02,28,16,49,4.50
2017,02,28,16,50,4.50
2017,02,28,16,51,4.40
2017,02,28,16,52,4.40
2017,02,28,16,53,4.40
2017,02,28,16,54,4.40
2017,02,28,16,55,4.40
2017,02,28,16,56,4.40
2017,02,28,16,57,4.40
2017,02,28,16,58,4.30
2017,02,28,16,59,4.30
2017,02,28,17,00,4.30
2017,02,28,17,01,4.30
2017,02,28,17,02,4.30
2017,02,28,17,03,4.30
2017,02,28,17,04,4.30
2017,02,28,17,05,4.30
2017,02,28,17,06,4.30
2017,02,28,17,07,4.30
2017,02,28,17,08,4.20
2017,02,28,17,09,4.20
2017,02,28,17,10,4.20
2017,02,28,17,11,4.20
2017,02,28,17,12,4.20
2017,02,28,17,13,4.10
2017,02,28,17,14,4.10
2017,02,28,17,15,4.10
2017,02,28,17,16,4.10
2017,02,28,17,17,4.00
2017,02,28,17,18,4.00
2017,02,28,17,19,3.90
2017,02,28,17,20,3.90
2017,02,28,17,21,3.90
2017,02,28,17,22,3.90
2017,02,28,17,23,3.90
2017,02,28,17,24,3.90
2017,02,28,17,25,3.90
2017,02,28,17,26,3.90
2017,02,28,17,27,3.90
2017,02,28,17,28,3.80
2017,02,28,17,29,3.80
2017,02,28,17,30,3.80
2017,02,28,17,31,3.80
2017,02,28,17,32,3.80
2017,02,28,17,33,3.80
2017,02,28,17,34,3.80
2017,02,28,17,35,3.70
2017,02,28,17,36,3.70
2017,02,28,17,37,3.70